Location: Luxembourg
(49.6117°N, 6.1300°E)
Time: 05:59:35
(UTC+02:00)

BEESAT 2 - Visible Passes

Search period start: 18 October 2019 00:00
Search period end: 27 October 2019 23:00
Orbit: 495 x 534 km, 64.9° (Epoch: 17 October)

Date Brightness Start Highest point End Pass type
(mag) Time Alt. Az. Time Alt. Az. Time Alt. Az.
19 Oct ? 07:17:39 10° N 07:18:56 11° NNE 07:20:14 10° NE visible
20 Oct ? 07:01:32 10° N 07:02:51 11° NNE 07:04:11 10° NE visible
21 Oct ? 06:45:26 10° N 06:46:46 11° NNE 06:48:06 10° NE visible
22 Oct ? 06:29:20 10° N 06:30:41 11° NNE 06:32:02 10° NE visible
23 Oct ? 06:13:13 10° N 06:14:35 11° NNE 06:15:57 10° NE visible
24 Oct ? 05:57:06 10° N 05:58:29 11° NNE 05:59:53 10° NE visible
24 Oct ? 07:33:42 10° NNW 07:37:19 31° NE 07:40:56 10° ESE visible
25 Oct ? 05:40:59 10° N 05:42:24 11° NNE 05:43:48 10° NE visible
25 Oct ? 07:17:35 10° NNW 07:21:13 31° NE 07:24:50 10° ESE visible
26 Oct ? 05:25:29 11° N 05:26:18 12° NNE 05:27:44 10° NE visible
26 Oct ? 07:01:29 10° NNW 07:05:07 31° NE 07:08:44 10° ESE visible
27 Oct ? 04:10:03 12° NNE 04:10:12 12° NNE 04:11:38 10° NE visible
27 Oct ? 05:45:22 10° NNW 05:49:01 32° NE 05:52:39 10° ESE visible
